THOR 5

Last updated on Aug. 8, 2020, 5:32 a.m. UTC

1 32487U 08006A   20220.33165293 -.00000019  00000-0  00000-0 0  9997
2 32487   0.0619 269.1832 0002460 228.9243 296.8285  1.00273201 45842
UTC
Height (km)
Latitude
Longitude
Inclination
Orbital Period
UTC large
Height (km)
Speed (km/s)
/
Latitude / Longitude
Inclination (degrees)
Orbital Period (minutes)
Azimuth
Elevation
Range (km)
Doppler Factor
iOS Compass Heading
iOS Angle

Next 30 passes for location: Hong Kong

Rise time Rise Azimuth (degrees) Set time Set Azimuth (degrees) Duration Max altitude (degrees)

No matching passes for this satellites